K9MWM-1 Weather Reports


time (UTC)temp
F
wind
direction
speed
knots
gust
knots
rain 1hr
in
rain 24hr
in
rain mn
in
humidity
%
barometer
mb
20260906223537 86 295 0.0 0.0 0.00 0.00 0.00
20260906223025 87 292 0.0 0.0 0.00 0.00 0.00
20260906222511 87 292 0.0 0.0 0.00 0.00 0.00
20260906221959 87 317 0.0 0.0 0.00 0.00 0.00
20260906220934 87 293 0.0 0.0 0.00 0.00 0.00
20260906220421 87 295 0.0 0.0 0.00 0.00 0.00
20260906215356 87 292 0.0 0.0 0.00 0.00 0.00
20260906214841 88 294 0.0 0.0 0.00 0.00 0.00
20260906214329 90 295 0.0 0.0 0.00 0.00 0.00
20260906213816 91 287 0.0 0.0 0.00 0.00 0.00
20260906212750 93 22 0.0 0.0 0.00 0.00 0.00
20260906212238 92 322 0.0 0.0 0.00 0.00 0.00
20260906211211 91 297 0.0 0.0 0.00 0.00 0.00
20260906210659 91 302 0.0 0.0 0.00 0.00 0.00
20260906210147 91 292 0.0 0.0 0.00 0.00 0.00
20260906205634 91 297 0.0 0.0 0.00 0.00 0.00
20260906204607 93 292 0.0 0.0 0.00 0.00 0.00
20260906203029 94 292 0.0 0.0 0.00 0.00 0.00
20260906201450 96 292 0.0 0.0 0.00 0.00 0.00
20260906200424 94 292 0.0 0.0 0.00 0.00 0.00
20260906195913 93 294 0.0 0.0 0.00 0.00 0.00
20260906195400 93 293 0.0 0.0 0.00 0.00 0.00
20260906194847 93 138 0.0 0.0 0.00 0.00 0.00
20260906194605 94 292 0.0 0.0 0.00 0.00 0.00
20260906194525 94 292 0.0 0.0 0.00 0.00 0.00
20260906194333 94 292 0.0 0.0 0.00 0.00 0.00
20260906193822 94 292 0.0 0.0 0.00 0.00 0.00
20260906192754 93 296 0.0 0.0 0.00 0.00 0.00
20260906192243 93 292 0.0 0.0 0.00 0.00 0.00
20260906191730 93 297 0.0 0.0 0.00 0.00 0.00
20260906191216 93 294 0.0 0.0 0.00 0.00 0.00
20260906190703 93 292 0.0 0.0 0.00 0.00 0.00
20260906190152 93 292 0.0 0.0 0.00 0.00 0.00
20260906185638 93 306 0.0 0.0 0.00 0.00 0.00
20260906185126 93 295 0.0 0.0 0.00 0.00 0.00
20260906184613 92 292 0.0 0.0 0.00 0.00 0.00
20260906184100 92 292 0.0 0.0 0.00 0.00 0.00
20260906183033 92 297 0.0 0.0 0.00 0.00 0.00
20260906182520 92 293 0.0 0.0 0.00 0.00 0.00
20260906182008 92 299 0.0 0.0 0.00 0.00 0.00
20260906181455 92 306 0.0 0.0 0.00 0.00 0.00
20260906180942 92 292 0.0 0.0 0.00 0.00 0.00
20260906180429 92 296 0.0 0.0 0.00 0.00 0.00
20260906175917 92 295 0.0 0.0 0.00 0.00 0.00
20260906174851 90 285 0.0 0.0 0.00 0.00 0.00
20260906174339 89 292 0.0 0.0 0.00 0.00 0.00
20260906173313 87 292 0.0 0.0 0.00 0.00 0.00
20260906172759 87 114 0.0 0.0 0.00 0.00 0.00
20260906171734 87 298 0.0 0.0 0.00 0.00 0.00
20260906171221 86 301 0.0 0.0 0.00 0.00 0.00
20260906170156 85 292 0.0 0.0 0.00 0.00 0.00
20260906165643 85 132 0.0 0.0 0.00 0.00 0.00
20260906165130 84 337 0.0 0.0 0.00 0.00 0.00
20260906164618 83 152 0.0 0.0 0.00 0.00 0.00
20260906164105 83 337 0.0 0.0 0.00 0.00 0.00
20260906163553 82 159 0.0 0.0 0.00 0.00 0.00
20260906155922 79 160 0.0 0.0 0.00 0.00 0.00
20260906154856 78 161 0.0 0.0 0.00 0.00 0.00
20260906154343 76 149 0.0 0.0 0.00 0.00 0.00
20260906153832 76 157 0.0 0.0 0.00 0.00 0.00
20260906153317 75 155 0.0 0.0 0.00 0.00 0.00
20260906152805 73 153 0.0 0.0 0.00 0.00 0.00
20260906151739 67 315 0.0 0.0 0.00 0.00 0.00
20260906151225 66 100 0.0 0.0 0.00 0.00 0.00
20260906150201 62 128 0.0 0.0 0.00 0.00 0.00
20260906145135 60 337 0.0 0.0 0.00 0.00 0.00
20260906144622 58 123 0.0 0.0 0.00 0.00 0.00
20260906144109 58 185 0.0 0.0 0.00 0.00 0.00
20260906143557 57 337 0.0 0.0 0.00 0.00 0.00
20260906142018 55 337 0.0 0.0 0.00 0.00 0.00
20260906141505 55 169 0.0 0.0 0.00 0.00 0.00
20260906140952 54 157 0.0 0.0 0.00 0.00 0.00
20260906140439 55 157 0.0 0.0 0.00 0.00 0.00
20260906135927 55 113 0.0 0.0 0.00 0.00 0.00
20260906135414 55 165 0.0 0.0 0.00 0.00 0.00
20260906134901 54 337 0.0 0.0 0.00 0.00 0.00
20260906134348 54 337 0.0 0.0 0.00 0.00 0.00
20260906133835 54 150 0.0 0.0 0.00 0.00 0.00
20260906132809 54 155 0.0 0.0 0.00 0.00 0.00
20260906132257 54 135 0.0 0.0 0.00 0.00 0.00
20260906131744 54 243 0.0 0.0 0.00 0.00 0.00
20260906131232 53 92 0.0 0.0 0.00 0.00 0.00
20260906130717 54 337 0.0 0.0 0.00 0.00 0.00
20260906130205 54 337 0.0 0.0 0.00 0.00 0.00
20260906125653 54 0 0.0 0.0 0.00 0.00 0.00
20260906124628 55 120 0.0 0.0 0.00 0.00 0.00
20260906123049 54 56 0.0 0.0 0.00 0.00 0.00
20260906122534 54 337 0.0 0.0 0.00 0.00 0.00
20260906122022 53 337 0.0 0.0 0.00 0.00 0.00
20260906121509 53 337 0.0 0.0 0.00 0.00 0.00
20260906120956 54 337 0.0 0.0 0.00 0.00 0.00
20260906120444 54 112 0.0 0.0 0.00 0.00 0.00
20260906115930 54 126 0.0 0.0 0.00 0.00 0.00
20260906114905 54 337 0.0 0.0 0.00 0.00 0.00
20260906114353 53 354 0.0 0.0 0.00 0.00 0.00
20260906113840 54 337 0.0 0.0 0.00 0.00 0.00
20260906111236 54 142 0.0 0.0 0.00 0.00 0.00
20260906110722 54 109 0.0 0.0 0.00 0.00 0.00
20260906110209 54 337 0.0 0.0 0.00 0.00 0.00
20260906105657 54 3 0.0 0.0 0.00 0.00 0.00
20260906105144 54 0 0.0 0.0 0.00 0.00 0.00
20260906104632 54 337 0.0 0.0 0.00 0.00 0.00
20260906104118 53 337 0.0 0.0 0.00 0.00 0.00
20260906103606 53 337 0.0 0.0 0.00 0.00 0.00
20260906103053 53 115 0.0 0.0 0.00 0.00 0.00
20260906102027 53 337 0.0 0.0 0.00 0.00 0.00
20260906101514 53 26 0.0 0.0 0.00 0.00 0.00
20260906101003 53 337 0.0 0.0 0.00 0.00 0.00
20260906095935 53 337 0.0 0.0 0.00 0.00 0.00
20260906095424 53 337 0.0 0.0 0.00 0.00 0.00
20260906094910 53 337 0.0 0.0 0.00 0.00 0.00
20260906094357 53 337 0.0 0.0 0.00 0.00 0.00
20260906093844 53 337 0.0 0.0 0.00 0.00 0.00
20260906093332 54 337 0.0 0.0 0.00 0.00 0.00
20260906092818 53 225 0.0 0.0 0.00 0.00 0.00
20260906092307 53 337 0.0 0.0 0.00 0.00 0.00
20260906091752 53 91 0.0 0.0 0.00 0.00 0.00
20260906091240 53 337 0.0 0.0 0.00 0.00 0.00
20260906085701 54 0 0.0 0.0 0.00 0.00 0.00
20260906084636 54 102 0.0 0.0 0.00 0.00 0.00
20260906084123 55 337 0.0 0.0 0.00 0.00 0.00
20260906083611 55 337 0.0 0.0 0.00 0.00 0.00
20260906083058 55 337 0.0 0.0 0.00 0.00 0.00
20260906082031 56 67 0.0 0.0 0.00 0.00 0.00
20260906081519 57 0 0.0 0.0 0.00 0.00 0.00
20260906081006 57 202 0.0 0.0 0.00 0.00 0.00
20260906075941 57 337 0.0 0.0 0.00 0.00 0.00
20260906075428 57 337 0.0 0.0 0.00 0.00 0.00
20260906074916 57 337 0.0 0.0 0.00 0.00 0.00
20260906073849 58 165 0.0 0.0 0.00 0.00 0.00
20260906073337 58 337 0.0 0.0 0.00 0.00 0.00
20260906072823 58 0 0.0 0.0 0.00 0.00 0.00
20260906071757 58 337 0.0 0.0 0.00 0.00 0.00
20260906071245 58 90 0.0 0.0 0.00 0.00 0.00
20260906070220 58 337 0.0 0.0 0.00 0.00 0.00
20260906065154 59 337 0.0 0.0 0.00 0.00 0.00
20260906064640 58 337 0.0 0.0 0.00 0.00 0.00
20260906064127 58 337 0.0 0.0 0.00 0.00 0.00
20260906063615 59 0 0.0 0.0 0.00 0.00 0.00
20260906062037 60 22 0.0 0.0 0.00 0.00 0.00
20260906061011 60 191 0.0 0.0 0.00 0.00 0.00
20260906060458 60 337 0.0 0.0 0.00 0.00 0.00
20260906055945 60 337 0.0 0.0 0.00 0.00 0.00
20260906055432 60 337 0.0 0.0 0.00 0.00 0.00
20260906054920 60 236 0.0 0.0 0.00 0.00 0.00
20260906053854 61 337 0.0 0.0 0.00 0.00 0.00
20260906053341 61 337 0.0 0.0 0.00 0.00 0.00
20260906052829 62 337 0.0 0.0 0.00 0.00 0.00
20260906052315 62 337 0.0 0.0 0.00 0.00 0.00
20260906051802 63 127 0.0 0.0 0.00 0.00 0.00
20260906050737 63 348 0.0 0.0 0.00 0.00 0.00
20260906045711 63 337 0.0 0.0 0.00 0.00 0.00
20260906045158 63 337 0.0 0.0 0.00 0.00 0.00
20260906044645 64 337 0.0 0.0 0.00 0.00 0.00
20260906044132 64 113 0.0 0.0 0.00 0.00 0.00
20260906043620 64 337 0.0 0.0 0.00 0.00 0.00
20260906043108 64 202 0.0 0.0 0.00 0.00 0.00
20260906042555 65 30 0.0 0.0 0.00 0.00 0.00
20260906042042 65 337 0.0 0.0 0.00 0.00 0.00
20260906041017 66 337 0.0 0.0 0.00 0.00 0.00
20260906040503 66 16 0.0 0.0 0.00 0.00 0.00
20260906034926 67 152 0.0 0.0 0.00 0.00 0.00
20260906034412 67 135 0.0 0.0 0.00 0.00 0.00
20260906033859 67 225 0.0 0.0 0.00 0.00 0.00
20260906033346 67 281 0.0 0.0 0.00 0.00 0.00
20260906032833 67 337 0.0 0.0 0.00 0.00 0.00
20260906032320 67 337 0.0 0.0 0.00 0.00 0.00
20260906031807 67 108 0.0 0.0 0.00 0.00 0.00
20260906031255 68 298 0.0 0.0 0.00 0.00 0.00
20260906030742 68 180 0.0 0.0 0.00 0.00 0.00
20260906030230 69 353 0.0 0.0 0.00 0.00 0.00
20260906025716 69 67 0.0 0.0 0.00 0.00 0.00
20260906025204 70 230 0.0 0.0 0.00 0.00 0.00
20260906024650 70 216 0.0 0.0 0.00 0.00 0.00
20260906023625 70 180 0.0 0.0 0.00 0.00 0.00
20260906022046 71 180 0.0 0.0 0.00 0.00 0.00
20260906021021 71 337 0.0 0.0 0.00 0.00 0.00
20260906015441 74 225 0.0 0.0 0.00 0.00 0.00
20260906014928 75 292 0.0 0.0 0.00 0.00 0.00
20260906014415 76 90 0.0 0.0 0.00 0.00 0.00
20260906013903 77 90 0.0 0.0 0.00 0.00 0.00
20260906013350 79 151 0.0 0.0 0.00 0.00 0.00
20260906012837 81 337 0.0 0.0 0.00 0.00 0.00
20260906011811 85 304 0.0 0.0 0.00 0.00 0.00
20260906011259 86 295 0.0 0.0 0.00 0.00 0.00
20260906010233 88 293 0.0 0.0 0.00 0.00 0.00
20260906005720 88 310 0.0 0.0 0.00 0.00 0.00
20260906005207 89 305 0.0 0.0 0.00 0.00 0.00
20260906004654 89 297 0.0 0.0 0.00 0.00 0.00
20260906004141 90 293 0.0 0.0 0.00 0.00 0.00
20260906003629 91 295 0.0 0.0 0.00 0.00 0.00
20260906003116 91 299 0.0 0.0 0.00 0.00 0.00
20260906001025 93 292 0.0 0.0 0.00 0.00 0.00
20260905235446 93 292 0.0 0.0 0.00 0.00 0.00
20260905234934 93 292 0.0 0.0 0.00 0.00 0.00
20260905234420 93 292 0.0 0.0 0.00 0.00 0.00
20260905233907 92 299 0.0 0.0 0.00 0.00 0.00
20260905233355 91 295 0.0 0.0 0.00 0.00 0.00
20260905232843 90 292 0.0 0.0 0.00 0.00 0.00
20260905231817 89 295 0.0 0.0 0.00 0.00 0.00
20260905231303 89 294 0.0 0.0 0.00 0.00 0.00
20260905230751 89 294 0.0 0.0 0.00 0.00 0.00
20260905230238 88 295 0.0 0.0 0.00 0.00 0.00
20260905225212 91 292 0.0 0.0 0.00 0.00 0.00
20260905224659 91 295 0.0 0.0 0.00 0.00 0.00
20260905224146 92 303 0.0 0.0 0.00 0.00 0.00